"Pseudo-MPEC" for P129wKg

Created 2025 Apr 30 11:31:06 UT using Find_Orb

Click here for an explanation of pseudo-MPECs

 
 Astrometry: 
     P129wKg* C2025 04 26.57327416 16 55.050+28 53 07.22   ~4QJV 22.29wXNEOCPF51
     P129wKg  C2025 04 26.58498616 16 53.133+28 52 59.40   ~4QJV 22.48wXNEOCPF51
     P129wKg  C2025 04 26.59669416 16 51.196+28 52 51.28   ~4QJV 22.51wXNEOCPF51
     P129wKg  C2025 04 26.60838916 16 49.260+28 52 43.40   ~4QJV 22.40wXNEOCPF51
     P129wKg KC2025 04 27.32047816 14 54.092+28 44 27.20   ~4R8H 22.38GVNEOCPV06
     P129wKg KC2025 04 27.32365616 14 53.549+28 44 24.86   ~4R8H 21.96GVNEOCPV06
     P129wKg KC2025 04 27.32683216 14 53.030+28 44 22.74   ~4R8H 22.19GVNEOCPV06
     P129wKg KC2025 04 27.33001016 14 52.505+28 44 20.40   ~4R8H 22.30GVNEOCPV06
     P129wKg KC2025 04 28.38027016 11 57.880+28 31 18.30   ~4S9l 22.37GVNEOCPV06
     P129wKg KC2025 04 28.38344616 11 57.336+28 31 15.89   ~4S9l 21.78GVNEOCPV06
     P129wKg KC2025 04 28.38662416 11 56.789+28 31 13.48   ~4S9l 22.29GVNEOCPV06
     P129wKg KC2025 04 28.38980216 11 56.231+28 31 11.17   ~4S9l 22.41GVNEOCPV06

Station data:
(F51) Pan-STARRS 1, Haleakala  (N20.707234 W156.255910)  US/Hawaii.
   Observers J. Bulger, T. Lowe, A. Schultz, M. Willman. Measurers K.
   Chambers, S. Chastel, T. de Boer, L. Denneau, J. Fairlamb, H. Flewelling,
   M. Huber, C.-C. Lin, E. Magnier, Y. Ramanjooloo, R. Wainscoat, R. Weryk.
   1.8-m Ritchey-Chrétien + CCD.
(V06) Catalina Sky Survey-Kuiper  (N32.416871 W110.732550)  US/Arizona.
   Observers T. A. Pruyne, B. M. Africano, E. J. Christensen, G. A. Farneth,
   D. C. Fuls, A. R. Gibbs, A. D. Grauer, H. Gröller, J. A. Johnson, R. A.
   Kowalski, S. M. Larson, G. J. Leonard, D. Rankin, R. L. Seaman, F. C.
   Shelly, K. W. Wierzchoś. 1.55-m reflector + CCD.

Orbital elements:  P129wKg
   Perihelion 2025 Oct 31.52051 +/- 86.8 TT = 12:29:31 (JD 2460980.02051)
Epoch 2025 Apr 28.0 TT = JDT 2460793.5   Earth MOID: 0.6752      AutoNEOCP
M 282.06779666 +/- 47               (J2000 ecliptic)
n   0.41782109 +/- 0.0607           Peri.  236.94196 +/- 41
a   1.77204932 +/- 0.172            Node    62.18215 +/- 1.7
e   0.0763839 +/- 0.0596            Incl.   53.70840 +/- 3.8
P   2.359/861.597d         H 20.15  G  0.15   U 10.9
q 1.63669318 +/- 0.0545    Q 1.90740545 +/- 0.29
From 12 observations 2025 Apr. 26-28 (43.6 hr); mean residual 0".09
Residuals in arcseconds: 
250426 F51  .07-  .13-    250427 V06  .00   .01+    250428 V06  .02+  .10-    
250426 F51  .12+  .05+    250427 V06  .14-  .09-    250428 V06  .05+  .05-    
250426 F51  .03+  .04-    250427 V06  .03+  .03+    250428 V06  .04+  .01+    
250426 F51  .09-  .13+    250427 V06  .13+  .06-    250428 V06  .11-  .17+    

Ephemerides (geocentric):
Date (UTC) HH   RA             Dec           delta  r     elong  mag " sig PA
---- --------  ------------   ------------  ------ ------ -----  --- --------
2025 04 30 12  16 05 53.457   +28 01 42.04  .91437 1.7514 131.3 22.3 4.91 123
2025 04 30 13  16 05 46.136   +28 01 04.37  .91409 1.7513 131.4 22.3 5.07 123
2025 04 30 14  16 05 38.809   +28 00 26.60  .91380 1.7513 131.4 22.3 5.23 123
2025 04 30 15  16 05 31.476   +27 59 48.71  .91352 1.7513 131.4 22.3 5.40 122
2025 04 30 16  16 05 24.138   +27 59 10.72  .91323 1.7512 131.4 22.3 5.56 122
2025 04 30 17  16 05 16.793   +27 58 32.62  .91295 1.7512 131.5 22.3 5.73 122
2025 04 30 18  16 05 09.443   +27 57 54.41  .91267 1.7511 131.5 22.3 5.91 122
2025 04 30 19  16 05 02.087   +27 57 16.09  .91238 1.7511 131.5 22.3 6.08 122
2025 04 30 20  16 04 54.726   +27 56 37.67  .91210 1.7510 131.6 22.3 6.26 122
2025 04 30 21  16 04 47.358   +27 55 59.13  .91182 1.7510 131.6 22.3 6.44 122
2025 04 30 22  16 04 39.985   +27 55 20.49  .91154 1.7510 131.6 22.3 6.62 121
2025 04 30 23  16 04 32.606   +27 54 41.74  .91126 1.7509 131.7 22.3 6.81 121
2025 05 01 00  16 04 25.222   +27 54 02.88  .91098 1.7509 131.7 22.3 7.00 121
2025 05 01 01  16 04 17.832   +27 53 23.91  .91070 1.7508 131.7 22.3 7.19 121
2025 05 01 02  16 04 10.436   +27 52 44.84  .91042 1.7508 131.7 22.3 7.38 121
2025 05 01 03  16 04 03.034   +27 52 05.65  .91014 1.7508 131.8 22.3 7.58 121
2025 05 01 04  16 03 55.627   +27 51 26.35  .90986 1.7507 131.8 22.3 7.78 121
2025 05 01 05  16 03 48.214   +27 50 46.95  .90958 1.7507 131.8 22.3 7.98 121
2025 05 01 06  16 03 40.796   +27 50 07.43  .90931 1.7506 131.9 22.3 8.18 120
2025 05 01 07  16 03 33.371   +27 49 27.81  .90903 1.7506 131.9 22.3 8.39 120
2025 05 01 08  16 03 25.942   +27 48 48.07  .90875 1.7506 131.9 22.3 8.60 120
2025 05 01 09  16 03 18.507   +27 48 08.23  .90847 1.7505 131.9 22.3 8.81 120
2025 05 01 10  16 03 11.066   +27 47 28.28  .90820 1.7505 132.0 22.3 9.03 120
2025 05 01 11  16 03 03.619   +27 46 48.21  .90792 1.7504 132.0 22.3 9.25 120
2025 05 01 12  16 02 56.168   +27 46 08.04  .90765 1.7504 132.0 22.3 9.47 120
2025 05 01 13  16 02 48.710   +27 45 27.76  .90737 1.7503 132.1 22.3 9.70 120
2025 05 01 14  16 02 41.247   +27 44 47.36  .90710 1.7503 132.1 22.3 9.92 119
2025 05 01 15  16 02 33.779   +27 44 06.86  .90682 1.7503 132.1 22.3 10.2 119
2025 05 01 16  16 02 26.305   +27 43 26.24  .90655 1.7502 132.1 22.3 10.4 119
2025 05 01 17  16 02 18.826   +27 42 45.52  .90628 1.7502 132.2 22.3 10.6 119
2025 05 01 18  16 02 11.341   +27 42 04.68  .90600 1.7501 132.2 22.3 10.9 119
2025 05 01 19  16 02 03.851   +27 41 23.74  .90573 1.7501 132.2 22.3 11.1 119
2025 05 01 20  16 01 56.356   +27 40 42.68  .90546 1.7501 132.3 22.3 11.3 119
2025 05 01 21  16 01 48.855   +27 40 01.51  .90519 1.7500 132.3 22.3 11.6 119
2025 05 01 22  16 01 41.348   +27 39 20.23  .90492 1.7500 132.3 22.3 11.8 119
2025 05 01 23  16 01 33.837   +27 38 38.84  .90465 1.7499 132.4 22.3 12.1 118
2025 05 02 00  16 01 26.320   +27 37 57.34  .90438 1.7499 132.4 22.3 12.4 118
2025 05 02 01  16 01 18.797   +27 37 15.72  .90411 1.7499 132.4 22.3 12.6 118
2025 05 02 02  16 01 11.270   +27 36 34.00  .90384 1.7498 132.4 22.3 12.9 118
2025 05 02 03  16 01 03.737   +27 35 52.16  .90357 1.7498 132.5 22.3 13.1 118
2025 05 02 04  16 00 56.198   +27 35 10.21  .90330 1.7497 132.5 22.3 13.4 118
2025 05 02 05  16 00 48.655   +27 34 28.15  .90303 1.7497 132.5 22.3 13.7 118
2025 05 02 06  16 00 41.106   +27 33 45.98  .90277 1.7496 132.6 22.3 14.0 118
2025 05 02 07  16 00 33.552   +27 33 03.70  .90250 1.7496 132.6 22.3 14.2 118
2025 05 02 08  16 00 25.993   +27 32 21.30  .90223 1.7496 132.6 22.3 14.5 117
2025 05 02 09  16 00 18.428   +27 31 38.80  .90197 1.7495 132.6 22.3 14.8 117
2025 05 02 10  16 00 10.859   +27 30 56.18  .90170 1.7495 132.7 22.3 15.1 117
2025 05 02 11  16 00 03.284   +27 30 13.44  .90144 1.7494 132.7 22.3 15.4 117